Simultaneous Nadir Overpasses (SNOs) Predictions

Prediction of SNOs between GOES-16 and TERRA Satellite Orbit:

Table of predicted SNOs for the next 14.0 days since TLE Epoch: 2/1/2020
Index Date Time (GOES-16) GOES-16 Lat,Lon TERRA Lat,Lon Distance(km) Time Diff (sec)
1 02/02/2020 03:17:43 0.02, -75.20 0.75, -71.71 396.31 80
2 02/02/2020 15:36:19 -0.02, -75.21 0.35, -76.87 189.60 80
3 02/04/2020 15:26:51 -0.02, -75.21 -0.31, -73.93 145.54 80
4 02/05/2020 03:45:36 0.03, -75.20 -0.80, -79.13 446.03 80
5 02/06/2020 15:14:42 -0.03, -75.22 -0.92, -70.98 480.83 80
6 02/07/2020 03:33:27 0.03, -75.21 -0.19, -76.18 110.71 80
7 02/09/2020 03:23:59 0.03, -75.22 0.48, -73.24 225.10 80
8 02/09/2020 15:42:35 -0.04, -75.23 0.62, -78.40 360.67 80
9 02/11/2020 15:30:26 -0.03, -75.24 0.01, -75.45 24.02 80
10 02/13/2020 15:20:57 -0.03, -75.26 -0.60, -72.50 313.25 80
11 02/14/2020 03:39:42 0.04, -75.26 -0.51, -77.70 277.66 80




NCC Satellite Simultaneous Nadir Overpasses (SNOs) Prediction Service
